    Orbital elements:
    2020 BN12                                                Earth MOID = 0.0079 AU
    Epoch 2020 May 31.0 TT = JDT 2459000.5                  Payne
    M  61.18878              (2000.0)            P               Q
    n   0.59438393     Peri.  199.57839     -0.87140293     -0.47574176
    a   1.4009566      Node   311.42221     +0.46868061     -0.73529598
    e   0.2998127      Incl.    9.18503     +0.14489797     -0.48271069
    P   1.66           H   25.8           G   0.15           U   6
    Residuals in seconds of arc
    200128 F51  0.0   0.1+    200129 I93  0.1+  0.2+    200129 160  0.2-  0.2-
    200128 F51  0.0   0.1-    200129 I93  0.1-  0.1+    200129 C95  0.1+  0.3-
    200128 F51  0.0   0.1+    200129 W34  0.2+  0.4-    200129 C95  0.2-  0.1+
    200128 T05  0.5+  0.6-    200129 I93  0.1-  0.0     200129 K38  0.2-  0.6+
    200128 T05  0.2+  0.2+    200129 W34  0.5+  0.4-    200129 C95  0.5+  0.7-
    200128 T05  0.0   0.5+    200129 W34  1.3+  0.4-    200129 K38  0.5-  0.2-
    200128 T05 (0.1-  2.2+)   200129 W34 (0.5+  1.6-)   200129 C95  0.1+  0.5+
    200128 033  0.1-  0.2-    200129 I52  0.2+  0.1-    200129 K38  0.2-  0.1+
    200128 033  0.2-  0.2-    200129 I52  0.0   0.0     200129 C77  0.1-  0.1-
    200128 033  0.2-  0.3-    200129 I52  0.0   0.2-    200129 C77  0.2+  0.7-
    200128 033  0.1-  0.4-    200129 587  0.1+  0.1+    200129 C77 (1.0+  2.5-)
    200128 J95  0.3-  0.0     200129 587  0.1+  0.1+    200129 K63  0.3-  0.0
    200128 J95  0.1+  0.1+    200129 587  0.0   0.4+    200129 K63  0.3+  0.1-
    200128 J95  0.2-  0.0     200129 104  0.2-  0.2+    200129 K63  0.3+  0.6+
    200128 J95  0.0   0.0     200129 104  0.1-  0.3+    200129 B49  0.4+  0.8-
    200128 Z99  0.2-  0.0     200129 104  0.1-  0.1+    200129 203  0.1-  0.2+
    200128 Z99  0.0   0.1-    200129 160  0.1-  0.1+    200129 B49  0.1+  1.2-
    200128 Z99  0.1-  0.1+    200129 160  0.1-  0.0     200129 203  0.1+  0.0
    200128 L01  0.0   0.0     200129 160  0.1-  0.2+    200129 203  0.1-  0.2+
    200128 L01  0.1-  0.1-    200129 160  0.1+  0.6+
    200128 L01  0.1+  0.1+    200129 160  0.0   0.7+
    
    Ephemeris:
    2020 BN12                a,e,i = 1.40, 0.30, 9                   q = 0.9809
    Date    TT    R. A. (2000) Decl.     Delta      r    Elong.  Phase     V
    2019 12 31    06 19 36.9 +69 21 48   0.1333  1.0797   133.7    41.2    23.2
    ...
    2020 01 15    06 38 56.9 +70 30 32   0.07185 1.0311   129.9    47.1    21.9
    ...
    2020 01 23    07 23 09.8 +67 43 11   0.03997 1.0109   131.2    47.1    20.6
    ...
    2020 01 29    08 45 33.3 +53 09 37   0.01726 0.9990   145.0    34.4    18.4
    2020 01 30    09 06 24.6 +45 26 45   0.01396 0.9973   152.2    27.4    17.7
    2020 01 31    09 29 33.4 +33 03 49   0.01113 0.9957   162.3    17.5    16.9
    ...
    2020 02 06    12 13 13.4 -62 16 48   0.01934 0.9876    94.4    84.5    20.2
    ...
    2020 02 14    14 36 42.8 -73 37 56   0.04961 0.9817    82.0    95.1    22.6
    ...
    2020 02 29    16 08 03.5 -74 58 26   0.1054  0.9864    84.7    89.2    24.0
    
    A. U. Tomatic                (C) Copyright 2020 MPC           M.P.E.C. 2020-B271
    


    Read MPEC 2020-B270 Read MPEC 2020-B272


    MPEC number:

    Enter an MPEC number in one of the following forms:

    • 1997-B01 (the full form)
    • J97B01 (the packed version of the full form)
    • B01 (the abbreviated form)